Flag for Turkmenistan Weather past 2 weeks in Ashgabat, Turkmenistan

Now
64 °F

Sunny.


Feels Like: 64 °F
Forecast: 64 / 92 °F
Wind: 3 mph from Northeast

Location: Ashgabat

Current Time: Sep 21, 2014 at 10:05:56 AM

Latest Report: Sep 21, 2014 at 9:00 AM


Visibility: N/A

Pressure: 29.89 "Hg

Humidity: 22%

Dew point: 25 °F

Location of AshgabatLocation

Historic Weather in Ashgabat — Graph

°F

Ashgabat temperature yesterday

Maximum temperature yesterday: 81 °F (at 4:00 PM)
Minimum temperature yesterday: 57 °F (at 7:00 AM)
Average temperature yesterday: 69 °F

Past Weeks' High & Low Weather Summary

 TemperatureHumidityPressure
High97 °F (Sep 9, 3:00 PM)57% (Sep 15, 5:00 AM)30.24 "Hg (Sep 15, 5:00 AM)
Low57 °F (Sep 20, 7:00 AM)6% (Sep 10, 2:00 PM)29.68 "Hg (Sep 16, 7:00 PM)
Average79 °F23%29.92 "Hg
* Reported Sep 6 9:00 AM — Sep 21 9:00 AM, Ashgabat, Weather by CustomWeather, © 2014

Note: Actual official high and low records may vary slightly from our data, if they occured in-between our weather recording intervals... More about our weather records

Advertising

Ashgabat weather history for previous 24 hours

 ConditionsComfort  
Time TempWeatherWind HumidityBarometerVisibility
9:00 AM
Sep 21
64 °FSunny.3 mph22%29.89 "HgN/A
8:00 AM61 °FSunny.3 mph27%29.89 "HgN/A
7:00 AM57 °FClear.3 mph31%29.86 "HgN/A
6:00 AM59 °FClear.3 mph29%29.86 "HgN/A
5:00 AM61 °FClear.6 mph27%29.86 "HgN/A
4:00 AM61 °FClear.6 mph27%29.86 "HgN/A
3:30 AM61 °FClear.6 mph27%29.86 "HgN/A
3:00 AM61 °FClear.6 mph29%29.86 "HgN/A
2:30 AM61 °FClear.8 mph31%29.89 "HgN/A
2:00 AM61 °FClear.6 mph31%29.89 "HgN/A
1:00 AM63 °FClear.6 mph27%29.92 "HgN/A
12:00 AM66 °FClear.3 mph24%29.95 "Hg6 mi
11:30 PM
Sep 20
66 °FClear.3 mph26%29.95 "Hg2 mi
11:00 PM68 °FClear.3 mph20%29.95 "HgN/A
6:00 PM79 °FSunny.10 mph12%29.98 "HgN/A
5:00 PM79 °FPassing clouds.10 mph10%29.98 "HgN/A
4:00 PM81 °FSunny.10 mph11%30.01 "HgN/A
3:00 PM79 °FSunny.8 mph12%30.01 "HgN/A
2:00 PM77 °FSunny.8 mph13%30.04 "HgN/A
1:00 PM73 °FSunny.8 mph15%30.07 "HgN/A
12:00 PM72 °FSunny.8 mph17%30.09 "HgN/A
11:00 AM68 °FSunny.8 mph18%30.12 "HgN/A
10:00 AM64 °FSunny.10 mph21%30.12 "HgN/A
Weather by CustomWeather, © 2014

See weather overviewHow to use our weather pages